TimeCDT,TemperatureF,Dew PointF,Humidity,Sea Level PressureIn,VisibilityMPH,Wind Direction,Wind SpeedMPH,Gust SpeedMPH,PrecipitationIn,Events,Conditions,WindDirDegrees,DateUTC
12:10 AM,68.0,62.2,82,29.81,7.0,South,4.6,-,N/A,,Overcast,180,2012-10-24 05:10:00
12:30 AM,68.0,62.2,82,29.80,7.0,South,5.8,-,N/A,,Overcast,170,2012-10-24 05:30:00
12:50 AM,67.6,62.2,83,29.80,7.0,SSE,5.8,-,N/A,,Overcast,160,2012-10-24 05:50:00
1:10 AM,67.3,62.1,83,29.81,7.0,South,5.8,-,N/A,,Overcast,180,2012-10-24 06:10:00
1:30 AM,66.7,61.7,84,29.81,7.0,South,6.9,-,N/A,,Scattered Clouds,170,2012-10-24 06:30:00
1:50 AM,66.4,61.7,85,29.81,7.0,South,6.9,-,N/A,,Scattered Clouds,180,2012-10-24 06:50:00
2:10 AM,66.2,61.7,85,29.80,5.0,SSE,4.6,-,N/A,,Clear,160,2012-10-24 07:10:00
2:30 AM,66.2,61.7,85,29.81,5.0,South,4.6,-,N/A,,Scattered Clouds,170,2012-10-24 07:30:00
2:50 AM,66.2,62.1,86,29.80,5.0,South,4.6,-,N/A,,Mostly Cloudy,180,2012-10-24 07:50:00
3:10 AM,66.4,62.2,86,29.80,5.0,South,5.8,-,N/A,,Overcast,180,2012-10-24 08:10:00
3:30 AM,66.6,62.6,87,29.80,5.0,SSE,5.8,-,N/A,,Overcast,160,2012-10-24 08:30:00
3:50 AM,67.1,62.8,86,29.80,5.0,Calm,Calm,-,N/A,,Overcast,0,2012-10-24 08:50:00
4:10 AM,66.9,62.8,87,29.80,5.0,SSE,3.5,-,N/A,,Overcast,160,2012-10-24 09:10:00
4:30 AM,67.1,62.8,86,29.80,5.0,SSE,3.5,-,N/A,,Overcast,160,2012-10-24 09:30:00
4:50 AM,66.7,62.6,86,29.81,4.0,South,3.5,-,N/A,,Overcast,170,2012-10-24 09:50:00
5:10 AM,66.7,62.8,87,29.81,4.0,South,3.5,-,N/A,,Overcast,180,2012-10-24 10:10:00
5:30 AM,66.9,62.8,87,29.81,4.0,South,4.6,-,N/A,,Overcast,180,2012-10-24 10:30:00
5:50 AM,66.7,62.8,87,29.81,4.0,South,3.5,-,N/A,,Overcast,190,2012-10-24 10:50:00
6:10 AM,67.1,63.0,87,29.82,5.0,South,5.8,-,N/A,,Overcast,190,2012-10-24 11:10:00
6:30 AM,67.1,63.3,88,29.82,5.0,SSW,5.8,-,N/A,,Overcast,210,2012-10-24 11:30:00
6:50 AM,67.3,63.5,88,29.82,5.0,South,4.6,-,N/A,,Overcast,180,2012-10-24 11:50:00
7:10 AM,67.1,63.0,87,29.82,4.0,South,5.8,-,N/A,,Overcast,190,2012-10-24 12:10:00
7:30 AM,67.1,63.0,87,29.82,3.0,SSE,4.6,-,N/A,,Overcast,160,2012-10-24 12:30:00
7:50 AM,67.1,63.0,87,29.84,2.5,Calm,Calm,-,N/A,,Overcast,0,2012-10-24 12:50:00
8:10 AM,66.9,63.0,87,29.84,1.8,Calm,Calm,-,N/A,,Overcast,0,2012-10-24 13:10:00
8:50 AM,67.1,63.1,87,29.83,1.0,Calm,Calm,-,N/A,,Overcast,0,2012-10-24 13:50:00
9:10 AM,67.1,63.3,88,29.82,1.0,Calm,Calm,-,N/A,,Overcast,0,2012-10-24 14:10:00
9:30 AM,67.3,63.5,88,29.81,0.8,ESE,3.5,-,N/A,,Overcast,120,2012-10-24 14:30:00
9:50 AM,67.8,64.0,88,29.82,1.2,SSE,4.6,-,N/A,,Overcast,160,2012-10-24 14:50:00
10:10 AM,68.0,64.2,88,29.82,0.8,SSE,4.6,-,N/A,,Overcast,150,2012-10-24 15:10:00
10:30 AM,68.0,64.4,88,29.81,1.2,SSE,8.1,-,N/A,,Overcast,150,2012-10-24 15:30:00
11:10 AM,68.2,64.6,88,29.81,1.5,SSE,10.4,-,N/A,,Overcast,160,2012-10-24 16:10:00
11:30 AM,68.4,64.8,88,29.80,2.0,SSE,4.6,-,N/A,,Overcast,150,2012-10-24 16:30:00
11:50 AM,68.9,64.9,87,29.80,3.0,South,9.2,-,N/A,,Overcast,170,2012-10-24 16:50:00
12:10 PM,68.9,65.1,88,29.79,3.0,SSE,9.2,-,N/A,,Overcast,160,2012-10-24 17:10:00
12:30 PM,69.4,65.3,87,29.79,3.0,SSE,8.1,-,N/A,,Overcast,160,2012-10-24 17:30:00
12:50 PM,69.8,65.3,86,29.78,3.0,South,9.2,-,N/A,,Haze,170,2012-10-24 17:50:00
1:30 PM,70.5,65.3,83,29.76,5.0,SSE,6.9,-,N/A,,Haze,160,2012-10-24 18:30:00
1:50 PM,70.7,65.3,83,29.75,5.0,SSE,9.2,-,N/A,,Haze,160,2012-10-24 18:50:00
2:10 PM,71.1,65.5,82,29.75,5.0,SSE,11.5,-,N/A,,Haze,160,2012-10-24 19:10:00
2:30 PM,71.2,65.5,82,29.74,5.0,SSE,8.1,-,N/A,,Haze,160,2012-10-24 19:30:00
2:50 PM,71.8,65.5,80,29.73,5.0,South,9.2,-,N/A,,Haze,180,2012-10-24 19:50:00
3:10 PM,72.7,65.7,79,29.73,7.0,SSE,10.4,-,N/A,,Overcast,160,2012-10-24 20:10:00
3:30 PM,73.4,65.8,77,29.72,7.0,SSE,6.9,-,N/A,,Overcast,160,2012-10-24 20:30:00
3:50 PM,73.4,65.7,77,29.72,10.0,SSE,6.9,-,N/A,,Overcast,160,2012-10-24 20:50:00
4:09 PM,73.6,65.8,77,29.72,7.0,South,8.1,-,N/A,,Overcast,180,2012-10-24 21:09:00
4:30 PM,73.8,66.0,77,29.72,7.0,South,11.5,-,N/A,,Overcast,180,2012-10-24 21:30:00
4:50 PM,73.9,64.9,73,29.72,10.0,South,10.4,-,N/A,,Overcast,190,2012-10-24 21:50:00
5:30 PM,73.6,63.7,71,29.72,10.0,SSW,13.8,21.9,N/A,,Overcast,200,2012-10-24 22:30:00
5:50 PM,73.4,63.3,71,29.71,10.0,South,10.4,-,N/A,,Mostly Cloudy,180,2012-10-24 22:50:00
6:10 PM,72.7,63.1,72,29.71,10.0,South,9.2,-,N/A,,Overcast,180,2012-10-24 23:10:00
6:30 PM,72.7,63.0,71,29.72,10.0,South,12.7,-,N/A,,Overcast,190,2012-10-24 23:30:00
6:50 PM,72.5,63.1,72,29.72,10.0,South,11.5,-,N/A,,Overcast,190,2012-10-24 23:50:00
7:30 PM,71.2,63.0,75,29.73,10.0,West,6.9,-,N/A,,Overcast,260,2012-10-25 00:30:00
8:10 PM,66.2,61.0,83,29.73,7.0,NW,8.1,-,N/A,,Overcast,310,2012-10-25 01:10:00
8:30 PM,65.1,60.3,84,29.73,7.0,NNW,8.1,-,N/A,,Overcast,340,2012-10-25 01:30:00
8:50 PM,63.7,59.2,85,29.72,5.0,NW,6.9,-,N/A,Thunderstorm,Unknown,320,2012-10-25 01:50:00
9:10 PM,63.1,58.8,86,29.71,5.0,NNW,9.2,-,N/A,Thunderstorm,Overcast,330,2012-10-25 02:10:00
9:50 PM,61.7,57.7,87,29.72,2.0,NNW,10.4,-,N/A,,Overcast,340,2012-10-25 02:50:00
10:10 PM,60.8,56.8,87,29.71,2.5,NNW,9.2,-,N/A,,Overcast,340,2012-10-25 03:10:00
10:30 PM,60.1,56.3,87,29.71,1.8,North,9.2,-,N/A,,Overcast,360,2012-10-25 03:30:00
10:50 PM,59.9,56.3,88,29.72,0.8,NNE,6.9,-,N/A,Thunderstorm,Overcast,20,2012-10-25 03:50:00
11:10 PM,59.5,55.9,88,29.71,1.2,North,4.6,-,N/A,Thunderstorm,Overcast,360,2012-10-25 04:10:00
11:30 PM,59.4,55.8,88,29.69,0.8,NNE,4.6,-,N/A,Thunderstorm,Overcast,20,2012-10-25 04:30:00
11:50 PM,59.4,55.8,88,29.69,3.0,NNE,6.9,-,N/A,,Overcast,20,2012-10-25 04:50:00